RH
13 13 13 13 13 12 13 13 13 13 14 14 15 15 15 15 15 15 14 14 14 14 15 15 14 14 14 14 15 14 13 13 13 13 13 13 13 14 14 14 15 15 16 16 16 17 18 18 19 19 18 19 19 21 21 21 20 21 29 27 25 26 23 22 23 22 22 21 20 18 19 19 19 20 19 20 20 21 22 22 23 23 23 24 23 23 23 23
13 13 13 13 13 13 13 13 13 13 13 14 14 14 15 15 15 14 14 14 14 14 14 15 14 14 15 15 15 15 14 13 13 13 13 13 13 14 14 15 15 15 16 17 17 18 19 19 19 20 20 20 21 22 21 22 21 24 31 26 27 30 23 22 22 21 22 21 21 21 20 20 20 20 20 21 21 22 23 23 23 23 24 23 22 23 22 23
12 13 13 13 13 13 13 13 13 13 13 13 13 13 14 14 14 14 13 13 14 14 14 15 15 15 15 15 15 16 15 14 13 13 13 13 13 14 14 15 15 16 16 17 18 19 21 21 20 20 20 21 22 22 22 23 23 24 27 26 30 32 24 23 23 22 23 22 23 22 22 22 22 21 21 22 22 22 23 23 23 23 23 22 22 22 22 22
11 12 12 13 13 13 13 13 13 13 12 12 12 12 13 13 13 13 13 12 13 14 15 14 14 15 15 16 16 16 16 16 14 13 14 13 13 14 14 16 16 16 16 17 18 19 20 21 20 20 21 22 22 23 23 24 23 23 24 25 29 28 25 25 24 24 24 24 24 23 23 23 23 22 21 22 22 23 23 22 22 22 22 22 22 21 21 20
11 11 11 11 11 12 12 13 13 13 12 12 12 12 12 12 12 12 12 12 12 14 15 15 14 14 15 16 16 16 17 19 16 14 14 13 14 14 15 16 16 17 17 18 19 19 20 20 20 21 22 22 23 23 24 24 24 24 25 26 26 25 25 25 25 25 25 24 24 23 23 23 23 23 23 23 23 24 23 22 22 22 22 22 21 21 20 20
11 11 11 11 11 11 11 12 12 12 12 12 12 12 12 12 12 12 11 11 11 12 14 15 15 14 15 15 16 17 19 20 17 15 15 14 14 14 15 16 16 17 17 18 19 20 21 20 20 22 23 24 24 24 24 25 25 26 27 26 26 26 25 25 25 24 24 23 23 23 23 24 25 25 25 24 24 23 23 23 23 23 23 22 21 21 20 20
10 11 11 11 11 11 11 11 11 11 12 12 12 12 12 12 11 11 11 10 10 11 12 14 15 15 16 16 16 17 17 18 16 15 16 15 15 15 14 15 16 16 17 18 19 20 21 21 22 23 25 25 25 24 24 23 24 25 26 26 26 27 26 25 25 24 24 24 23 23 24 25 25 26 25 25 24 24 24 24 23 23 23 22 22 21 21 22
10 10 11 10 10 10 11 11 11 11 11 11 11 11 11 11 11 11 10 10 10 11 11 12 14 14 16 17 17 17 16 17 16 15 16 16 16 16 15 15 15 16 17 18 19 20 20 21 22 24 25 26 26 25 24 23 24 25 26 26 26 27 27 26 25 25 25 25 24 24 25 25 25 25 25 25 24 24 25 24 24 24 23 23 22 22 23 23
11 11 11 11 10 10 10 11 11 10 10 10 11 11 11 11 11 11 10 10 10 11 10 11 12 13 15 16 17 18 18 17 16 15 15 16 17 17 16 15 15 16 17 18 18 19 19 19 20 22 24 25 25 25 24 24 24 26 27 26 26 26 26 26 26 26 25 25 24 25 26 26 25 25 25 26 25 25 26 26 26 26 25 24 24 24 24 23
11 11 11 11 10 10 10 10 10 10 9 9 10 11 11 10 10 10 10 10 11 11 10 11 11 11 13 14 16 18 18 17 16 16 15 15 16 17 17 16 16 17 17 17 17 18 19 19 19 20 23 25 24 24 24 24 24 26 26 26 26 26 26 26 26 26 25 25 24 26 28 27 25 26 27 27 26 26 27 27 27 27 26 25 25 25 25 24
12 11 11 11 10 10 10 10 9 9 9 9 9 10 10 10 10 10 10 10 11 10 10 11 11 11 12 13 16 17 17 17 16 16 16 15 16 16 17 17 16 17 17 17 17 17 18 19 18 19 23 24 24 24 23 23 24 25 24 25 26 26 26 26 26 26 26 26 25 27 29 28 27 30 31 28 27 27 26 27 27 27 26 25 26 26 26 25
12 12 12 11 11 10 9 9 10 9 9 9 8 9 9 9 9 9 9 9 10 11 10 11 12 11 12 12 14 15 16 16 16 16 16 16 16 16 16 17 17 17 17 17 17 17 17 18 18 19 21 22 24 24 23 23 24 24 24 25 27 28 28 27 27 26 26 27 27 27 28 29 31 32 32 29 28 27 26 27 27 27 27 27 27 27 27 26
13 13 12 12 11 10 10 10 10 9 9 8 8 8 9 9 9 9 9 9 9 10 10 11 12 11 12 13 13 13 14 14 15 16 17 17 17 16 16 17 18 17 16 16 16 17 17 17 18 19 19 20 23 22 22 24 24 25 25 26 28 31 31 28 27 27 27 28 28 27 29 30 33 32 31 30 28 28 27 27 28 28 28 28 28 28 28 27
14 13 13 12 12 11 10 10 10 10 9 9 9 8 8 9 8 9 9 9 10 10 9 11 11 11 12 13 13 12 13 13 14 15 16 17 17 16 16 17 19 18 16 16 16 16 16 17 19 19 19 20 21 21 24 26 26 26 25 30 33 30 32 31 28 28 27 28 28 27 29 30 32 31 29 29 28 28 28 28 28 28 28 28 28 28 28 27
15 14 14 13 12 11 10 10 10 10 10 9 9 9 9 8 8 9 9 10 11 10 10 11 12 11 12 13 12 12 13 13 13 14 16 18 18 17 16 17 18 18 16 16 16 15 16 16 18 19 19 19 21 24 27 29 31 30 26 33 37 31 33 33 28 29 28 28 28 27 30 31 32 32 30 29 28 28 28 28 28 28 29 29 28 28 28 27
16 15 15 14 14 13 12 11 11 11 10 10 10 9 9 9 9 9 10 11 11 10 10 12 13 12 12 13 12 13 12 12 13 13 15 17 17 17 17 17 18 19 17 15 15 15 15 16 18 19 18 18 24 28 30 32 35 35 29 31 36 32 30 30 28 31 31 30 30 29 31 32 33 34 32 31 29 28 28 28 28 29 29 29 28 27 26 25
17 16 16 15 15 14 14 13 12 12 11 11 11 10 9 9 10 10 10 11 11 10 12 13 13 13 13 13 13 13 13 12 13 13 14 15 17 17 18 18 19 18 17 15 15 15 14 15 16 18 18 19 25 30 29 31 33 35 33 30 32 31 29 29 29 32 32 32 33 32 32 33 34 35 33 32 30 29 29 29 29 28 28 28 28 27 26 25
17 17 17 17 16 16 16 15 14 13 13 13 12 11 10 11 10 10 11 12 11 12 13 14 13 12 13 14 14 14 13 13 13 14 13 13 15 18 19 19 20 18 17 16 14 14 14 15 17 20 25 22 23 28 27 29 30 28 30 29 29 30 28 29 31 31 31 31 32 34 34 34 35 36 35 33 31 30 30 29 29 29 29 29 29 29 28 26
16 17 17 17 17 17 17 17 16 15 14 14 13 12 11 11 11 11 12 12 11 12 13 13 12 11 12 13 13 14 14 14 14 14 13 13 14 18 20 20 19 18 18 19 17 15 14 15 18 22 27 25 22 27 26 27 29 25 27 29 29 30 28 28 30 30 30 30 32 34 33 33 35 38 37 33 32 31 31 30 30 30 30 31 31 31 29 27
17 17 17 18 18 18 18 18 17 17 16 15 14 13 13 14 13 14 14 12 12 12 12 12 12 11 12 12 13 14 15 15 15 14 14 13 14 18 20 19 20 19 19 20 18 16 14 17 20 20 23 25 23 25 25 25 28 26 28 29 29 30 28 27 29 31 31 31 33 34 33 33 34 37 37 34 33 33 33 33 32 32 32 32 33 31 29 27
17 17 17 18 18 18 19 19 18 18 18 17 16 15 16 16 16 16 15 14 13 13 13 13 14 14 14 14 15 16 16 16 15 15 15 13 15 18 20 20 21 22 21 20 18 17 16 17 21 21 23 23 22 24 25 25 27 26 27 28 28 30 29 27 29 31 31 32 33 34 32 32 34 35 37 36 34 35 35 35 34 33 33 33 32 29 28 27
17 17 17 17 18 18 19 20 20 19 19 19 18 17 17 17 17 16 16 16 15 14 14 15 15 16 16 16 17 17 17 17 16 17 16 15 17 18 19 21 22 22 22 19 19 21 21 20 19 21 22 21 20 24 25 26 26 26 28 29 28 29 30 30 31 33 33 31 33 35 32 31 33 35 36 36 35 35 35 35 34 33 33 32 31 28 27 27
17 18 17 17 18 18 19 20 20 20 20 20 20 20 19 18 17 17 18 19 18 15 15 17 18 17 18 17 17 18 18 17 17 17 17 16 18 19 19 22 23 22 20 19 20 20 20 23 21 19 19 18 20 24 26 25 25 27 28 28 28 29 31 30 31 35 35 33 34 35 31 30 33 34 35 36 35 34 35 34 33 33 32 31 31 29 28 27
17 18 18 18 19 19 20 20 20 21 21 21 21 21 20 19 18 18 19 20 20 18 17 19 20 19 19 19 18 19 19 18 17 17 17 16 18 19 19 21 23 22 20 20 21 19 18 20 18 18 19 18 20 24 27 25 26 31 31 28 28 29 30 30 33 35 33 35 38 35 30 30 33 32 33 36 35 34 35 34 34 33 32 31 31 30 29 29
17 18 18 19 19 20 20 20 20 21 21 22 23 22 21 20 18 20 21 21 20 20 20 20 21 20 20 20 20 20 19 18 17 16 17 17 18 19 19 20 20 21 21 19 18 16 16 17 17 19 20 20 21 25 29 28 28 33 33 30 29 29 31 33 35 34 31 35 38 36 34 34 34 33 34 37 36 35 36 35 34 34 33 32 32 30 29 29
18 18 18 18 19 20 20 21 21 22 22 23 23 22 22 21 19 20 23 25 22 20 22 21 21 22 21 22 21 19 19 18 17 17 17 17 18 18 20 20 18 19 20 17 17 16 16 19 21 21 22 24 24 26 32 31 29 31 31 32 32 31 33 34 34 33 33 36 36 36 38 37 33 31 34 37 37 36 37 36 35 34 34 33 31 30 29 29
19 18 18 19 19 19 19 21 22 23 22 22 23 23 22 21 21 21 22 26 24 21 24 23 21 23 22 22 21 18 20 19 16 16 17 18 20 19 21 22 18 17 16 17 20 20 17 19 22 22 23 25 24 25 31 32 30 32 33 34 33 31 34 34 33 34 34 35 35 37 41 38 32 30 33 36 37 37 36 36 35 34 34 33 31 30 29 30
20 19 19 19 20 19 19 20 21 22 22 22 23 23 23 22 21 24 23 23 24 22 24 24 22 23 22 21 21 19 19 18 17 17 17 18 19 19 20 21 21 20 17 18 21 21 18 18 21 22 22 23 24 28 32 31 31 33 34 33 30 31 33 33 34 34 34 35 34 38 44 44 36 33 35 36 37 37 35 36 36 34 35 33 31 30 30 31
21 21 21 22 22 20 19 19 20 21 22 23 23 23 24 21 21 26 26 23 24 23 23 24 23 22 22 21 21 20 18 18 18 18 18 18 19 20 20 20 21 20 17 16 20 21 19 19 21 23 23 23 28 33 35 32 30 31 34 33 33 35 35 34 35 34 36 38 37 39 45 46 39 33 35 38 37 37 36 36 37 36 35 35 32 31 31 32
25 23 23 23 23 22 20 20 21 22 23 22 23 23 21 21 25 30 28 24 25 26 24 22 23 21 21 21 21 20 20 19 18 18 19 19 20 21 20 19 18 19 21 20 19 22 21 18 19 21 22 25 29 33 34 33 31 32 35 35 37 40 39 41 41 37 40 42 39 39 42 46 44 35 33 37 37 36 37 37 39 38 37 36 33 31 32 32
28 27 26 26 26 24 23 23 22 23 23 22 23 22 19 23 33 35 30 23 20 24 24 22 23 22 22 23 23 22 20 19 18 18 20 21 21 21 20 20 19 23 29 25 22 26 24 20 21 20 21 25 28 29 32 35 35 35 38 38 37 39 42 44 42 40 45 45 39 39 41 44 44 36 33 37 36 36 38 37 38 40 38 36 33 32 33 33
30 28 28 28 28 28 27 26 25 24 24 23 23 21 19 26 34 35 31 23 18 22 24 24 25 24 24 25 25 24 21 20 19 19 23 25 24 24 23 22 21 23 28 27 25 28 25 24 25 23 22 24 27 29 32 37 39 38 39 40 39 42 46 46 42 43 47 44 39 39 41 41 37 33 34 37 36 38 39 37 38 41 39 36 34 34 34 34
32 29 29 30 31 32 29 26 27 26 24 23 22 21 24 29 31 29 26 21 18 23 26 27 28 28 27 25 26 27 23 22 21 20 25 27 25 27 27 25 23 20 22 26 28 28 28 30 28 24 24 24 26 28 31 35 37 36 37 40 42 44 52 52 47 49 49 46 42 39 40 40 34 31 33 34 36 40 40 38 41 42 40 38 35 35 35 34
38 36 35 36 36 37 34 30 28 25 23 21 19 24 33 35 30 26 24 21 21 24 26 28 28 27 27 25 27 29 23 24 26 23 26 28 27 28 25 23 24 22 23 27 29 30 31 31 28 26 26 25 25 27 33 37 38 38 40 43 41 43 52 54 50 50 49 48 44 39 41 42 36 34 35 35 38 41 40 42 45 43 41 40 38 36 36 35
40 41 42 43 44 45 44 41 36 30 27 23 20 27 35 33 29 26 25 24 24 23 23 26 27 25 27 28 30 30 24 24 28 27 28 29 29 29 26 23 24 25 26 27 29 30 30 31 30 27 26 28 27 29 35 38 39 42 43 41 39 41 47 48 46 47 49 50 44 38 39 39 35 35 36 38 40 41 43 46 47 44 42 41 39 37 37 37
41 44 44 44 45 48 49 47 45 41 34 28 28 33 31 25 26 26 23 22 23 23 23 26 27 27 29 31 31 30 26 26 29 29 30 31 30 29 28 25 24 22 22 24 27 26 27 31 31 27 27 30 29 30 33 35 38 40 38 37 39 42 42 42 44 46 51 57 48 37 38 37 35 36 36 39 41 41 47 49 46 44 43 41 40 39 38 38
46 46 44 41 41 46 47 47 50 47 38 32 32 31 25 22 25 25 24 22 22 24 24 24 26 27 28 30 30 29 28 28 29 29 31 31 27 26 26 24 23 21 19 21 24 25 25 28 30 30 30 30 28 30 33 34 38 40 39 38 40 41 40 42 49 51 56 64 54 41 41 40 38 40 39 41 43 43 48 49 45 45 45 43 41 40 39 39
46 46 47 42 37 40 43 45 51 49 40 35 32 29 25 23 22 23 24 24 22 24 24 23 22 23 26 26 26 29 28 26 27 28 30 29 24 24 25 22 22 22 20 20 23 26 27 26 30 34 33 31 30 33 35 34 36 40 39 38 40 44 45 46 55 58 62 70 63 52 49 42 39 43 43 42 43 46 50 48 46 47 47 46 43 41 41 40
44 45 47 41 31 32 36 41 46 45 40 38 36 34 31 26 22 22 23 23 23 25 26 25 20 20 25 26 25 28 26 25 27 27 27 26 24 24 23 22 24 24 23 22 23 27 27 26 32 35 34 34 32 35 39 37 35 36 36 37 40 44 48 51 56 59 64 72 70 66 62 47 39 43 43 42 44 48 50 48 47 48 48 46 43 42 42 41
43 44 46 39 29 27 30 35 40 40 38 39 38 36 33 29 26 24 22 23 24 24 26 28 24 22 25 26 26 27 25 27 29 28 26 26 25 24 22 23 26 26 26 25 26 27 28 30 34 34 36 36 33 34 37 36 36 35 36 39 40 42 48 53 53 54 61 69 73 78 74 51 39 43 43 42 47 50 50 48 48 49 48 46 43 42 42 41
45 45 46 43 36 34 37 41 42 41 40 40 37 36 34 31 30 28 24 23 24 24 25 28 28 28 27 27 27 26 26 30 31 30 30 29 27 25 24 24 26 28 28 28 28 27 29 33 34 34 36 36 34 36 37 37 38 38 38 40 42 46 52 57 60 57 58 65 71 80 78 53 40 45 46 46 51 52 49 48 50 50 47 45 44 43 42 41
42 42 41 39 37 38 43 47 46 45 45 42 39 37 35 33 32 32 29 27 28 27 27 29 30 31 29 28 29 29 31 35 36 35 35 33 30 27 26 25 25 27 28 30 31 30 32 36 35 35 37 37 36 39 41 41 40 41 43 44 46 50 53 61 69 66 63 65 66 76 77 55 42 48 49 50 54 52 49 49 51 50 46 44 44 43 43 42
38 38 37 34 33 35 39 40 41 43 43 41 39 38 37 36 36 35 34 32 32 30 29 29 29 30 30 29 29 30 33 36 38 37 36 34 31 28 27 26 26 29 31 32 33 32 35 39 39 39 41 40 38 40 41 41 41 41 43 45 45 46 51 61 68 71 75 73 70 81 78 54 45 53 53 52 55 52 50 51 51 50 45 43 44 43 43 42
40 39 38 36 36 38 37 33 33 36 37 35 35 35 35 35 34 34 34 32 30 29 28 26 25 25 26 26 25 27 29 30 32 33 32 33 32 28 27 28 28 30 30 30 31 31 35 40 42 45 49 47 42 42 43 42 41 40 40 41 42 45 55 62 65 73 80 74 75 87 78 55 51 57 53 54 57 53 53 54 51 48 46 44 44 44 43 44
51 48 45 43 42 43 41 35 31 32 33 33 33 33 32 32 30 29 29 27 25 25 24 23 23 21 22 24 24 25 27 26 27 29 30 33 33 29 28 29 28 28 28 28 28 30 35 39 40 46 52 51 43 41 43 44 42 41 39 39 43 49 57 63 69 77 78 74 78 80 70 58 54 55 55 56 58 56 56 57 52 48 47 46 46 45 45 45
72 65 57 54 53 53 49 44 40 38 36 36 35 33 32 31 28 24 25 25 24 23 22 22 22 21 23 26 25 25 27 26 27 30 32 33 33 30 29 28 28 28 28 29 30 34 43 43 39 40 44 44 40 37 41 45 42 41 41 41 45 52 61 68 74 75 75 80 78 66 65 65 54 52 60 58 57 59 59 57 55 52 50 48 46 46 47 47
89 77 67 64 65 62 57 54 52 48 42 38 35 33 31 31 28 25 26 26 23 23 23 23 23 23 24 26 27 27 26 26 29 31 34 35 33 31 29 28 30 30 30 32 34 40 48 45 40 42 43 41 40 40 45 47 45 44 47 48 51 60 70 75 75 70 73 85 77 57 64 70 54 52 61 59 57 60 58 57 57 53 50 47 47 48 49 49
92 78 70 68 68 67 63 59 58 57 52 44 37 33 31 32 31 29 27 26 25 24 25 25 24 23 23 24 28 28 27 30 34 33 33 34 32 32 31 30 33 34 35 37 39 43 49 46 42 46 48 46 45 48 52 55 56 56 57 60 64 69 72 73 74 70 73 82 73 58 64 66 54 54 62 61 61 60 57 57 56 51 50 49 49 51 51 50
92 83 77 73 71 69 66 63 66 68 62 54 47 41 36 35 34 32 30 31 30 27 26 27 25 23 25 25 27 28 28 32 35 32 30 31 30 32 34 34 36 37 38 41 44 48 51 49 49 54 56 55 55 58 62 66 69 67 64 68 74 73 70 72 73 70 72 75 69 65 69 60 49 55 62 59 59 58 56 56 53 51 52 51 52 53 52 51
89 85 83 82 81 77 74 78 82 82 74 67 60 49 41 39 37 34 34 35 35 32 30 30 27 25 27 28 28 28 27 28 30 28 29 32 34 37 39 39 41 43 43 44 49 54 57 59 62 66 68 64 61 68 74 77 80 76 68 70 75 75 74 77 75 71 75 75 68 69 73 58 45 52 57 54 56 57 56 55 54 53 53 53 54 55 54 53
89 90 90 92 91 85 84 88 90 92 88 78 66 55 50 49 43 42 44 42 41 40 39 38 35 33 36 37 34 32 30 29 29 29 33 38 40 41 41 42 45 48 50 52 57 62 68 73 74 77 80 74 71 80 85 84 88 84 71 69 74 75 75 76 74 70 71 73 71 73 71 57 47 51 53 53 55 55 54 56 55 55 55 55 57 57 55 54
94 98 95 94 94 89 88 88 89 92 87 73 65 63 61 58 54 55 59 54 49 49 48 46 44 45 47 45 39 36 36 37 38 40 43 46 47 47 47 48 50 53 59 63 66 70 75 77 78 83 86 83 82 88 89 90 92 79 62 61 67 69 69 71 68 64 63 68 73 70 61 52 53 56 54 53 54 53 54 55 54 55 57 57 57 56 54 53